GW6471 Weather Reports


time (UTC)temp
C
wind
direction
speed
KPH
gust
KPH
rain 1hr
cm
rain 24hr
cm
rain mn
cm
humidity
%
barometer
mb
20260509162152 10 191 0.0 0.0 0.00 0.00 0.00 64 1002.9
20260509161648 10 203 0.0 0.0 0.00 0.00 0.00 66 1002.8
20260509161144 10 175 0.0 0.0 0.00 0.00 0.00 65 1002.8
20260509160640 10 204 0.0 1.6 0.00 0.00 0.00 68 1002.7
20260509160135 10 201 0.0 0.0 0.00 0.00 0.00 69 1002.7
20260509155632 9 202 0.0 1.6 0.00 0.00 0.00 68 1002.7
20260509155128 9 191 0.0 0.0 0.00 0.00 0.00 68 1002.8
20260509154624 9 243 3.2 3.2 0.00 0.00 0.00 68 1002.8
20260509154121 9 197 0.0 1.6 0.00 0.00 0.00 68 1003.0
20260509153618 10 197 0.0 1.6 0.00 0.00 0.00 66 1002.7
20260509153115 9 180 0.0 1.6 0.00 0.00 0.00 69 1002.6
20260509152611 9 166 0.0 0.0 0.00 0.00 0.00 74 1002.3
20260509152108 9 166 0.0 1.6 0.00 0.00 0.00 68 1002.2
20260509151604 9 165 0.0 0.0 0.00 0.00 0.00 71 1002.3
20260509151102 9 165 0.0 1.6 0.00 0.00 0.00 71 1002.1
20260509150559 9 179 0.0 0.0 0.00 0.00 0.00 71 1002.3
20260509150058 9 179 0.0 0.0 0.00 0.00 0.00 69 1002.6
20260509145553 9 201 1.6 1.6 0.00 0.00 0.00 65 1002.7
20260509145049 9 170 0.0 0.0 0.00 0.00 0.00 66 1002.8
20260509144546 9 118 0.0 1.6 0.00 0.00 0.00 64 1002.9
20260509144043 10 142 0.0 0.0 0.00 0.00 0.00 65 1002.8
20260509143540 10 219 9.7 17.7 0.00 0.00 0.00 64 1002.8
20260509143038 10 216 1.6 1.6 0.00 0.00 0.00 67 1002.7
20260509142533 10 202 1.6 1.6 0.00 0.00 0.00 66 1002.3
20260509142029 10 201 8.0 11.3 0.00 0.00 0.00 64 1002.3
20260509141525 10 231 1.6 1.6 0.00 0.00 0.00 65 1001.9
20260509141022 11 229 6.4 6.4 0.00 0.00 0.00 63 1001.7
20260509140519 11 199 3.2 3.2 0.00 0.00 0.00 63 1001.6
20260509140017 11 216 0.0 1.6 0.00 0.00 0.00 64 1001.5
20260509135514 11 147 0.0 1.6 0.00 0.00 0.00 64 1000.8
20260509135011 11 193 1.6 1.6 0.00 0.00 0.00 63 1000.9
20260509134508 11 266 1.6 3.2 0.00 0.00 0.00 63 1000.4
20260509134006 12 204 3.2 4.8 0.00 0.00 0.00 64 1000.6
20260509133502 12 201 6.4 9.7 0.00 0.00 0.00 65 1000.6
20260509133000 12 318 4.8 6.4 0.00 0.00 0.00 70 1000.3
20260509132458 12 182 3.2 4.8 0.00 0.00 0.00 71 1000.4
20260509131955 12 203 3.2 3.2 0.00 0.00 0.00 71 1000.2
20260509131452 12 205 1.6 1.6 0.00 0.00 0.00 71 1000.1
20260509130949 12 239 1.6 1.6 0.00 0.00 0.00 71 999.8
20260509130444 12 221 3.2 4.8 0.00 0.00 0.00 70 999.8
20260509125942 12 188 3.2 4.8 0.00 0.00 0.00 70 1000.0
20260509125438 12 223 0.0 0.0 0.00 0.00 0.00 71 999.8
20260509124934 12 312 3.2 6.4 0.00 0.00 0.00 70 999.9
20260509124431 12 201 4.8 6.4 0.00 0.00 0.00 70 999.8
20260509123929 12 203 3.2 3.2 0.00 0.00 0.00 70 999.9
20260509123426 12 176 0.0 0.0 0.00 0.00 0.00 71 999.9
20260509122922 12 199 1.6 3.2 0.00 0.00 0.00 72 999.6
20260509122419 12 214 1.6 1.6 0.00 0.00 0.00 72 999.8
20260509121915 12 188 1.6 1.6 0.00 0.00 0.00 72 999.7
20260509121413 11 196 1.6 1.6 0.00 0.00 0.00 72 1000.0
20260509120911 11 196 1.6 1.6 0.00 0.00 0.00 73 1000.1
20260509120408 11 191 0.0 1.6 0.00 0.00 0.00 72 999.4
20260509115906 11 191 0.0 1.6 0.00 0.00 0.00 72 999.4
20260509115403 11 187 0.0 0.0 0.00 0.00 0.00 72 1000.0
20260509114901 11 203 0.0 1.6 0.00 0.00 0.00 72 999.9
20260509114359 10 210 0.0 0.0 0.00 0.00 0.00 72 999.9
20260509113858 10 213 0.0 0.0 0.00 0.00 0.00 70 1000.0
20260509113355 10 215 1.6 3.2 0.00 0.00 0.00 70 999.9
20260509112851 10 205 0.0 0.0 0.00 0.00 0.00 70 999.9
20260509112348 10 216 0.0 0.0 0.00 0.00 0.00 68 999.9
20260509111846 10 160 0.0 0.0 0.00 0.00 0.00 68 999.9
20260509111342 10 214 0.0 1.6 0.00 0.00 0.00 68 999.9
20260509110840 10 208 0.0 1.6 0.00 0.00 0.00 67 999.8
20260509110336 10 196 0.0 0.0 0.00 0.00 0.00 67 999.8
20260509105835 10 201 0.0 0.0 0.00 0.00 0.00 67 999.8
20260509105332 10 211 1.6 1.6 0.00 0.00 0.00 67 999.8
20260509104829 10 180 0.0 0.0 0.00 0.00 0.00 67 999.7
20260509104325 10 196 0.0 0.0 0.00 0.00 0.00 66 999.8
20260509103823 10 241 1.6 3.2 0.00 0.00 0.00 66 999.8
20260509103320 10 202 0.0 1.6 0.00 0.00 0.00 66 1000.2
20260509102820 10 212 1.6 1.6 0.00 0.00 0.00 66 1000.3
20260509102316 10 210 1.6 1.6 0.00 0.00 0.00 66 1000.3
20260509101812 11 219 1.6 3.2 0.00 0.00 0.00 64 1000.5
20260509101308 11 215 1.6 1.6 0.00 0.00 0.00 64 1000.5
20260509100806 11 202 0.0 0.0 0.00 0.00 0.00 64 1000.3
20260509100303 11 201 1.6 1.6 0.00 0.00 0.00 63 1000.2
20260509095759 11 206 1.6 1.6 0.00 0.00 0.00 62 1000.3
20260509095257 11 191 0.0 0.0 0.00 0.00 0.00 63 1000.3
20260509094754 12 187 0.0 1.6 0.00 0.00 0.00 62 1000.5
20260509094250 12 202 0.0 1.6 0.00 0.00 0.00 62 1000.5
20260509093748 12 211 1.6 1.6 0.00 0.00 0.00 62 1000.7
20260509093245 12 176 0.0 1.6 0.00 0.00 0.00 61 1000.6
20260509092744 12 198 0.0 0.0 0.00 0.00 0.00 61 1000.8
20260509092241 11 204 0.0 1.6 0.00 0.00 0.00 61 1000.7
20260509091739 11 180 0.0 1.6 0.00 0.00 0.00 60 1000.5
20260509091235 11 247 1.6 1.6 0.00 0.00 0.00 58 1000.6
20260509090733 11 175 0.0 0.0 0.00 0.00 0.00 58 1000.7
20260509090230 11 192 0.0 1.6 0.00 0.00 0.00 58 1000.8
20260509085728 10 197 0.0 0.0 0.00 0.00 0.00 58 1000.8
20260509085225 10 197 0.0 1.6 0.00 0.00 0.00 57 1000.9
20260509084721 10 197 0.0 1.6 0.00 0.00 0.00 57 1000.9
20260509084218 10 198 0.0 0.0 0.00 0.00 0.00 56 1001.1
20260509083716 10 198 0.0 0.0 0.00 0.00 0.00 56 1001.3
20260509083212 11 196 0.0 0.0 0.00 0.00 0.00 55 1001.3
20260509082709 11 204 0.0 0.0 0.00 0.00 0.00 54 1001.3
20260509082206 11 187 0.0 0.0 0.00 0.00 0.00 53 1001.4
20260509081702 11 195 0.0 0.0 0.00 0.00 0.00 52 1001.7
20260509081200 11 208 1.6 1.6 0.00 0.00 0.00 52 1001.7
20260509080658 11 92 0.0 1.6 0.00 0.00 0.00 50 1001.7
20260509080155 11 195 0.0 0.0 0.00 0.00 0.00 48 1001.7
20260509075654 11 195 1.6 1.6 0.00 0.00 0.00 47 1002.0
20260509075151 11 212 0.0 1.6 0.00 0.00 0.00 47 1001.9
20260509074648 11 154 1.6 1.6 0.00 0.00 0.00 45 1001.9
20260509074144 11 179 0.0 0.0 0.00 0.00 0.00 43 1002.0
20260509073641 11 211 0.0 0.0 0.00 0.00 0.00 41 1001.9
20260509073137 11 161 0.0 0.0 0.00 0.00 0.00 41 1002.1
20260509072634 11 196 1.6 1.6 0.00 0.00 0.00 40 1002.2
20260509072131 11 189 0.0 0.0 0.00 0.00 0.00 39 1002.5
20260509071628 11 189 0.0 0.0 0.00 0.00 0.00 39 1002.6
20260509071125 11 214 0.0 0.0 0.00 0.00 0.00 40 1002.6
20260509070622 11 190 0.0 0.0 0.00 0.00 0.00 38 1002.8
20260509070118 11 190 0.0 0.0 0.00 0.00 0.00 36 1003.0
20260509065614 12 232 0.0 1.6 0.00 0.00 0.00 33 1003.1
20260509065110 12 168 0.0 0.0 0.00 0.00 0.00 35 1003.2
20260509064608 12 213 0.0 0.0 0.00 0.00 0.00 34 1003.4
20260509064106 12 215 0.0 0.0 0.00 0.00 0.00 36 1003.4
20260509063602 11 205 1.6 1.6 0.00 0.00 0.00 35 1003.5
20260509063059 11 205 0.0 1.6 0.00 0.00 0.00 40 1003.6
20260509062555 11 200 0.0 0.0 0.00 0.00 0.00 42 1003.6
20260509062053 11 200 0.0 0.0 0.00 0.00 0.00 36 1003.5
20260509061550 12 164 0.0 0.0 0.00 0.00 0.00 38 1003.8
20260509061047 12 164 0.0 0.0 0.00 0.00 0.00 37 1004.1
20260509060545 12 198 0.0 0.0 0.00 0.00 0.00 37 1004.1
20260509060040 12 239 3.2 3.2 0.00 0.00 0.00 37 1004.0
20260509055536 12 171 0.0 0.0 0.00 0.00 0.00 38 1004.2
20260509055032 12 171 0.0 0.0 0.00 0.00 0.00 38 1004.0
20260509054529 12 163 0.0 0.0 0.00 0.00 0.00 38 1004.1
20260509054027 12 197 0.0 1.6 0.00 0.00 0.00 36 1004.1
20260509053525 12 171 1.6 3.2 0.00 0.00 0.00 36 1004.2
20260509053022 12 198 0.0 0.0 0.00 0.00 0.00 37 1004.2
20260509052519 12 199 0.0 1.6 0.00 0.00 0.00 36 1004.2
20260509052017 12 190 0.0 0.0 0.00 0.00 0.00 36 1004.2
20260509051515 12 211 0.0 0.0 0.00 0.00 0.00 36 1004.3
20260509051012 12 223 0.0 1.6 0.00 0.00 0.00 34 1004.2
20260509050508 12 165 0.0 1.6 0.00 0.00 0.00 36 1004.3
20260509050005 11 195 0.0 0.0 0.00 0.00 0.00 39 1004.5
20260509045502 11 196 0.0 1.6 0.00 0.00 0.00 37 1004.7
20260509044959 11 201 0.0 0.0 0.00 0.00 0.00 40 1004.7
20260509044457 11 203 0.0 1.6 0.00 0.00 0.00 37 1004.8
20260509043954 11 196 0.0 1.6 0.00 0.00 0.00 41 1004.9
20260509043449 11 182 0.0 0.0 0.00 0.00 0.00 42 1005.0
20260509042945 11 182 0.0 0.0 0.00 0.00 0.00 44 1005.2
20260509042443 12 182 0.0 0.0 0.00 0.00 0.00 42 1005.1
20260509041938 12 181 0.0 0.0 0.00 0.00 0.00 38 1005.2
20260509041435 12 207 0.0 0.0 0.00 0.00 0.00 37 1005.4
20260509040934 12 173 0.0 1.6 0.00 0.00 0.00 38 1005.5
20260509040432 12 164 0.0 0.0 0.00 0.00 0.00 38 1005.6
20260509035928 12 177 0.0 0.0 0.00 0.00 0.00 38 1005.6
20260509035425 12 158 0.0 0.0 0.00 0.00 0.00 36 1005.6
20260509034921 12 200 0.0 1.6 0.00 0.00 0.00 40 1005.8
20260509034419 12 174 0.0 0.0 0.00 0.00 0.00 40 1005.8
20260509033916 12 201 0.0 0.0 0.00 0.00 0.00 39 1005.7
20260509033413 12 207 0.0 0.0 0.00 0.00 0.00 38 1005.7
20260509032909 12 199 0.0 0.0 0.00 0.00 0.00 40 1005.8
20260509032407 12 198 0.0 0.0 0.00 0.00 0.00 39 1005.7
20260509031905 12 198 0.0 0.0 0.00 0.00 0.00 36 1005.8
20260509031402 12 198 0.0 0.0 0.00 0.00 0.00 39 1005.7
20260509030859 12 194 0.0 1.6 0.00 0.00 0.00 35 1005.8
20260509030357 12 205 0.0 0.0 0.00 0.00 0.00 39 1005.8
20260509025854 12 16 0.0 1.6 0.00 0.00 0.00 38 1005.8
20260509025349 13 203 0.0 0.0 0.00 0.00 0.00 36 1005.9
20260509024845 12 177 0.0 0.0 0.00 0.00 0.00 36 1005.9
20260509024341 12 224 1.6 1.6 0.00 0.00 0.00 37 1005.9
20260509023838 12 233 4.8 4.8 0.00 0.00 0.00 36 1006.0
20260509023336 12 224 0.0 0.0 0.00 0.00 0.00 40 1006.0
20260509022832 12 231 0.0 0.0 0.00 0.00 0.00 37 1005.9
20260509022330 12 232 0.0 0.0 0.00 0.00 0.00 37 1006.0
20260509021826 12 186 1.6 1.6 0.00 0.00 0.00 37 1005.8
20260509021323 12 182 0.0 0.0 0.00 0.00 0.00 37 1006.1
20260509020821 12 173 0.0 0.0 0.00 0.00 0.00 38 1006.0
20260509020319 12 188 0.0 0.0 0.00 0.00 0.00 41 1006.1
20260509015816 12 187 0.0 0.0 0.00 0.00 0.00 38 1006.0
20260509015314 12 187 0.0 0.0 0.00 0.00 0.00 41 1005.9
20260509014811 12 164 0.0 1.6 0.00 0.00 0.00 39 1005.9
20260509014308 13 179 0.0 0.0 0.00 0.00 0.00 39 1006.0
20260509013804 13 179 0.0 0.0 0.00 0.00 0.00 37 1006.0
20260509013300 13 178 0.0 0.0 0.00 0.00 0.00 37 1006.0
20260509012756 13 151 0.0 0.0 0.00 0.00 0.00 35 1005.9
20260509012254 13 192 0.0 1.6 0.00 0.00 0.00 34 1005.8
20260509011751 13 198 0.0 0.0 0.00 0.00 0.00 34 1006.0
20260509011248 13 146 0.0 0.0 0.00 0.00 0.00 35 1005.9
20260509010746 14 174 0.0 0.0 0.00 0.00 0.00 37 1006.2
20260509010243 14 173 0.0 0.0 0.00 0.00 0.00 34 1006.2
20260509005741 14 95 0.0 1.6 0.00 0.00 0.00 32 1006.1
20260509005238 14 200 0.0 1.6 0.00 0.00 0.00 33 1006.0
20260509004737 14 173 0.0 0.0 0.00 0.00 0.00 32 1005.9
20260509004235 14 204 0.0 0.0 0.00 0.00 0.00 33 1006.0
20260509003733 15 204 0.0 0.0 0.00 0.00 0.00 33 1005.9
20260509003230 15 204 0.0 0.0 0.00 0.00 0.00 35 1006.0
20260509002727 15 202 0.0 1.6 0.00 0.00 0.00 31 1006.0
20260509002225 15 223 0.0 0.0 0.00 0.00 0.00 32 1005.9
20260509001722 15 171 0.0 0.0 0.00 0.00 0.00 32 1006.0
20260509001218 15 228 1.6 1.6 0.00 0.00 0.00 32 1006.0
20260509000716 15 212 0.0 1.6 0.00 0.00 0.00 31 1005.8
20260509000213 15 200 0.0 1.6 0.00 0.00 0.00 32 1006.1
20260508235710 15 210 0.0 0.0 0.00 0.00 0.00 32 1006.1
20260508235206 15 190 0.0 0.0 0.00 0.00 0.00 32 1006.2
20260508234704 15 189 0.0 0.0 0.00 0.00 0.00 33 1006.0
20260508234200 15 197 0.0 0.0 0.00 0.00 0.00 31 1006.2
20260508233700 15 271 3.2 4.8 0.00 0.00 0.00 31 1006.3
20260508233157 15 254 4.8 4.8 0.00 0.00 0.00 30 1006.1
20260508232654 15 197 1.6 3.2 0.00 0.00 0.00 31 1006.3
20260508232150 15 214 0.0 1.6 0.00 0.00 0.00 30 1006.2
20260508231649 15 198 1.6 4.8 0.00 0.00 0.00 30 1006.3
20260508231145 15 152 0.0 1.6 0.00 0.00 0.00 31 1006.3
20260508230642 15 235 1.6 3.2 0.00 0.00 0.00 30 1006.3
20260508230138 16 187 0.0 1.6 0.00 0.00 0.00 30 1006.4
20260508225636 16 190 1.6 1.6 0.00 0.00 0.00 30 1006.2
20260508225132 16 350 3.2 4.8 0.00 0.00 0.00 30 1006.4
20260508224630 16 191 1.6 1.6 0.00 0.00 0.00 29 1006.3
20260508224128 16 220 1.6 3.2 0.00 0.00 0.00 29 1006.2
20260508223625 16 205 4.8 6.4 0.00 0.00 0.00 29 1006.2
20260508223122 16 178 0.0 1.6 0.00 0.00 0.00 29 1006.3
20260508222620 17 220 1.6 3.2 0.00 0.00 0.00 28 1006.3
20260508222117 17 202 0.0 0.0 0.00 0.00 0.00 28 1006.8
20260508221613 17 230 3.2 3.2 0.00 0.00 0.00 28 1006.4
20260508221108 16 197 1.6 1.6 0.00 0.00 0.00 28 1006.6
20260508220605 16 184 1.6 1.6 0.00 0.00 0.00 28 1006.6
20260508215559 17 108 3.2 4.8 0.00 0.00 0.00 28 1006.8
20260508215055 17 219 1.6 3.2 0.00 0.00 0.00 27 1006.6
20260508214553 17 264 4.8 4.8 0.00 0.00 0.00 27 1006.6
20260508214049 17 137 3.2 4.8 0.00 0.00 0.00 29 1006.6
20260508213546 17 218 1.6 3.2 0.00 0.00 0.00 27 1006.6
20260508213042 17 230 3.2 3.2 0.00 0.00 0.00 27 1006.8
20260508212539 17 266 4.8 4.8 0.00 0.00 0.00 27 1006.6
20260508212035 17 192 1.6 3.2 0.00 0.00 0.00 27 1006.9
20260508211531 17 206 4.8 4.8 0.00 0.00 0.00 26 1006.9
20260508211027 17 257 4.8 6.4 0.00 0.00 0.00 29 1006.9
20260508210524 17 248 1.6 1.6 0.00 0.00 0.00 26 1006.9
20260508210022 17 244 4.8 9.7 0.00 0.00 0.00 26 1006.8
20260508205518 17 230 1.6 3.2 0.00 0.00 0.00 26 1007.0
20260508205014 17 183 3.2 3.2 0.00 0.00 0.00 27 1007.0
20260508204512 17 54 4.8 4.8 0.00 0.00 0.00 25 1007.2
20260508204007 17 165 3.2 4.8 0.00 0.00 0.00 27 1007.0
20260508203503 17 121 1.6 1.6 0.00 0.00 0.00 26 1007.1
20260508202959 18 193 3.2 4.8 0.00 0.00 0.00 26 1007.2
20260508202456 17 244 3.2 3.2 0.00 0.00 0.00 26 1007.3
20260508201953 17 214 3.2 3.2 0.00 0.00 0.00 26 1007.3
20260508201450 17 265 6.4 9.7 0.00 0.00 0.00 26 1007.5
20260508200947 17 259 1.6 3.2 0.00 0.00 0.00 26 1007.3
20260508200444 17 307 8.0 11.3 0.00 0.00 0.00 26 1007.5
20260508195938 17 331 6.4 9.7 0.00 0.00 0.00 26 1007.6
20260508195436 16 195 4.8 6.4 0.00 0.00 0.00 27 1007.7
20260508194932 17 245 3.2 4.8 0.00 0.00 0.00 27 1007.8
20260508194430 17 290 3.2 3.2 0.00 0.00 0.00 25 1008.0
20260508193926 17 248 1.6 3.2 0.00 0.00 0.00 25 1007.8
20260508193424 17 216 3.2 3.2 0.00 0.00 0.00 27 1008.0
20260508192919 17 89 1.6 3.2 0.00 0.00 0.00 27 1008.1
20260508192417 17 279 3.2 3.2 0.00 0.00 0.00 26 1008.1
20260508191914 16 65 3.2 3.2 0.00 0.00 0.00 28 1008.1
20260508191411 16 249 6.4 9.7 0.00 0.00 0.00 28 1008.2
20260508190908 16 256 3.2 4.8 0.00 0.00 0.00 26 1008.3
20260508190405 16 297 4.8 6.4 0.00 0.00 0.00 27 1008.4
20260508185901 16 279 3.2 3.2 0.00 0.00 0.00 26 1008.3
20260508185359 16 138 1.6 1.6 0.00 0.00 0.00 27 1008.4
20260508184855 17 221 3.2 3.2 0.00 0.00 0.00 27 1008.4
20260508184353 16 209 6.4 6.4 0.00 0.00 0.00 27 1008.5
20260508183849 16 211 6.4 6.4 0.00 0.00 0.00 29 1008.5
20260508183346 16 245 3.2 4.8 0.00 0.00 0.00 28 1008.7
20260508182842 16 228 1.6 1.6 0.00 0.00 0.00 29 1008.6
20260508182339 16 178 3.2 4.8 0.00 0.00 0.00 28 1008.8
20260508181834 16 164 3.2 4.8 0.00 0.00 0.00 30 1008.9
20260508181331 16 345 4.8 6.4 0.00 0.00 0.00 28 1009.0
20260508180828 16 304 3.2 3.2 0.00 0.00 0.00 29 1009.0
20260508180325 15 248 3.2 4.8 0.00 0.00 0.00 30 1009.1
20260508175821 16 326 3.2 4.8 0.00 0.00 0.00 30 1009.0
20260508175318 16 202 3.2 4.8 0.00 0.00 0.00 29 1009.2
20260508174816 16 197 0.0 1.6 0.00 0.00 0.00 29 1009.1
20260508174313 16 181 4.8 6.4 0.00 0.00 0.00 32 1009.2
20260508173809 15 192 3.2 6.4 0.00 0.00 0.00 29 1009.4
20260508173307 15 299 4.8 6.4 0.00 0.00 0.00 30 1009.1
20260508172802 15 154 8.0 12.9 0.00 0.00 0.00 30 1009.5
20260508172300 16 179 9.7 12.9 0.00 0.00 0.00 29 1009.4
20260508171755 16 279 1.6 3.2 0.00 0.00 0.00 31 1009.4
20260508171252 15 275 4.8 4.8 0.00 0.00 0.00 31 1009.5
20260508170749 15 113 1.6 1.6 0.00 0.00 0.00 30 1009.7
20260508170247 15 289 4.8 4.8 0.00 0.00 0.00 30 1009.5
20260508165744 15 237 4.8 4.8 0.00 0.00 0.00 30 1009.6
20260508165241 15 310 3.2 3.2 0.00 0.00 0.00 29 1009.7
20260508164737 15 261 6.4 9.7 0.00 0.00 0.00 29 1009.8
20260508164234 16 101 1.6 3.2 0.00 0.00 0.00 31 1009.8
20260508163732 15 155 3.2 4.8 0.00 0.00 0.00 31 1009.9
20260508163229 15 229 6.4 9.7 0.00 0.00 0.00 30 1010.0
20260508162725 15 227 11.3 12.9 0.00 0.00 0.00 32 1009.9
20260508162222 15 174 1.6 3.2 0.00 0.00 0.00 33 1010.0